2017-033A

Last updated on Mon Jun 19 2017 00:15:07 GMT+0000 (Coordinated Universal Time)

1 42756U 17033A 17169.52889899 .00002358 00000-0 42972-4 0 9996 2 42756 51.6430 31.6400 0004466 293.4951 145.2282 15.54053132 61967
UTC large
Height (km)
Speed (km/s)
/
Latitude / Longitude
Inclination (degrees)
Orbital Period (minutes)
Azimuth
Elevation
Range (km)
Doppler Factor

Next 0 passes for location: London (51.5072 / 0.1276)

Sorry there are no passes over London.